Weather History for Stanley, ID

Change the Weather History Date:

Sunday, September 15, 2013

  Actual Average Record
Temperature  
Mean Temperature 59 °F 48 °F  
Max Temperature 73 °F 67 °F 85 °F (1990)
Min Temperature 44 °F 28 °F 16 °F (1971)
Degree Days  
Heating Degree Days 6 17  
Month to date heating degree days 105 230  
Since 1 July heating degree days 432 750  
Cooling Degree Days 0 0  
Month to date cooling degree days 0 0  
Year to date cooling degree days 19 3  
Growing Degree Days 8 (Base 50)    
Moisture  
Dew Point 44 °F    
Average Humidity 64    
Maximum Humidity 92    
Minimum Humidity 35    
Precipitation  
Precipitation 0.00 in 0.04 in 0.27 in (1963)
Month to date precipitation 0.50 0.52  
Year to date precipitation 6.95 11.81  
Sea Level Pressure  
Sea Level Pressure 29.87 in    
Wind  
Wind Speed 7 mph (SSE)    
Max Wind Speed 18 mph    
Max Gust Speed 29 mph    
T = Trace of Precipitation, MM = Missing Value Source: NWS Daily Summary

Daily Weather History Graph

Daily Weather History Graph

Search for Another Location

Airport:

Trip Planner

Search our weather history database for the weather conditions in past years. The results will help you decide how hot, cold, wet, or windy it might be!

Date:

Astronomy

Sep. 15, 2013 Rise Set
Actual Time 7:19 AM MDT 7:49 PM MDT
Civil Twilight 6:50 AM MDT 8:18 PM MDT
Nautical Twilight 6:15 AM MDT 8:52 PM MDT
Astronomical Twilight 5:40 AM MDT 9:28 PM MDT
Moon 5:26 PM MDT (9/15) 2:54 AM MDT (9/15)
Length of Visible Light 13h 28m
Length of Day
12h 30m
Waxing Gibbous, 82% of the Moon is Illuminated
Sep 15
Waxing Gibbous
Sep 19
Full
Sep 26
Last Quarter
Oct 4
New
Oct 11
First Quarter

Hourly Weather History & Observations

Time (MDT) Temp. Windchill Dew Point Humidity Pressure Visibility Wind Dir Wind Speed Gust Speed Precip Events Conditions
12:51 AM 46.0 °F - 42.1 °F 86% 29.92 in - Calm Calm - N/A   Unknown
1:51 AM 46.9 °F - 43.0 °F 86% 29.90 in - SSE 3.5 mph - N/A   Unknown
2:51 AM 45.0 °F 43.5 °F 42.1 °F 90% 29.90 in - South 3.5 mph - N/A   Unknown
3:51 AM 44.1 °F 42.5 °F 42.1 °F 93% 29.91 in - SE 3.5 mph - N/A   Unknown
4:51 AM 46.0 °F - 42.1 °F 86% 29.91 in - Calm Calm - N/A   Unknown
5:51 AM 46.0 °F - 42.1 °F 86% 29.91 in - Calm Calm - N/A   Unknown
6:51 AM 46.0 °F 43.9 °F 42.1 °F 86% 29.92 in - South 4.6 mph - N/A   Unknown
7:51 AM 45.0 °F 43.5 °F 42.1 °F 90% 29.93 in - South 3.5 mph - N/A   Unknown
8:51 AM 48.9 °F - 43.0 °F 80% 29.93 in - ENE 4.6 mph - N/A   Unknown
9:51 AM 55.9 °F - 44.1 °F 64% 29.92 in - ENE 4.6 mph - N/A   Unknown
10:51 AM 60.1 °F - 45.0 °F 57% 29.89 in - Calm Calm - N/A   Unknown
11:51 AM 69.1 °F - 44.1 °F 40% 29.85 in - SSE 11.5 mph 16.1 mph N/A   Unknown
12:51 PM 70.0 °F - 43.0 °F 38% 29.86 in - SSE 12.7 mph 23.0 mph N/A   Unknown
1:51 PM 73.0 °F - 44.1 °F 35% 29.84 in - SSE 15.0 mph 23.0 mph N/A   Unknown
2:51 PM 70.0 °F - 44.1 °F 39% 29.84 in - SSE 10.4 mph 17.3 mph N/A   Unknown
3:51 PM 71.1 °F - 43.0 °F 36% 29.83 in - SE 11.5 mph 20.7 mph N/A   Unknown
4:51 PM 72.0 °F - 45.0 °F 38% 29.81 in - SSE 12.7 mph 18.4 mph N/A   Unknown
5:51 PM 70.0 °F - 44.1 °F 39% 29.81 in - SSE 15.0 mph 24.2 mph N/A   Unknown
6:51 PM 66.9 °F - 45.0 °F 45% 29.83 in - SSE 9.2 mph 17.3 mph N/A   Unknown
7:51 PM 62.1 °F - 46.0 °F 56% 29.84 in - South 5.8 mph - N/A   Unknown
8:51 PM 61.0 °F - 45.0 °F 56% 29.85 in - South 8.1 mph - N/A   Unknown
9:51 PM 57.9 °F - 45.0 °F 62% 29.84 in - SSE 4.6 mph - N/A   Unknown
10:51 PM 59.0 °F - 46.0 °F 62% 29.81 in - SE 10.4 mph - N/A   Unknown
11:51 PM 55.0 °F - 45.0 °F 69% 29.78 in - SE 4.6 mph - N/A   Unknown